Regional Weather Roundup
Issued by NWS Sterling, VA

Home | Current Version | Previous Version | Text Only | Print | Product List | Glossary Off
Versions: 1 2 3 4 5 6 7 8 9 10 11 12 13 14 15 16 17 18 19 20 21 22 23 24 25 26 27

000
ASUS41 KLWX 291010
RWRLWX

REGIONAL WEATHER ROUNDUP
NATIONAL WEATHER SERVICE BALTIMORE MD/WASHINGTON DC
600 AM EDT FRI APR 29 2016

Note: "FAIR" indicates few or no clouds below 12,000 feet
with no significant weather and/or obstructions to visibility.
 TC=TEMPERATURE CELSIUS

 * =Non NWS site. Station does not report precipitation (e.g. rain,
    snow, etc.), thunder, or fog.

DCZ001-MDZ009-015-VAZ040>042-051-053>054-291100-
WASHINGTON METRO

CITY           SKY/WX    TMP DP  RH WIND       PRES   REMARKS
WASHINGTON NAT CLOUDY    49  46  90 E9        30.03R
DULLES         CLOUDY    46  44  93 N5        30.03R FOG
ANDREWS AFB    CLOUDY    47  46  96 N7        30.01R FOG
FT BELVOIR     DRIZZLE   48  46  93 VRB2      30.03R
QUANTICO       CLOUDY    50  47  89 N7        30.03S
COLLEGE PARK*  CLOUDY    45  43  93 N5        30.03R
LEESBURG*      CLOUDY    46  46 100 E3        30.03S FOG
MANASSAS*      CLOUDY    46  46 100 CALM      30.02S
GAITHERSBURG*  CLOUDY    45  41  87 CALM      30.07R

$$

MDZ006>007-011-014-291100-
BALTIMORE METRO

CITY           SKY/WX    TMP DP  RH WIND       PRES   REMARKS
BWI AIRPORT    DRIZZLE   46  44  93 N6        30.02R FOG
MD SCIENCE CTR   N/A     47  44  90 MISG      30.04R
ANNAPOLIS      CLOUDY    48  46  93 MISG      30.04R
FORT MEADE*    CLOUDY    45  43  93 CALM      30.05R

$$

MDZ012-015-019>023-291100-
MARYLAND EASTERN SHORE

CITY           SKY/WX    TMP DP  RH WIND       PRES   REMARKS
OCEAN CITY     CLOUDY    50  49  96 NE10      29.98S FOG
SALISBURY      CLOUDY    49  48  97 NE12      29.98S FOG
CAMBRIDGE*     CLOUDY    46  46 100 NE6       30.00R
EASTON*        CLOUDY   N/A N/A N/A NE6       30.05R FOG

$$

MDZ017>025-291100-
SOUTHERN MARYLAND

CITY           SKY/WX    TMP DP  RH WIND       PRES   REMARKS
PATUXENT RIVER DRIZZLE   50  47  89 NE12      30.00R
ST INIGOES     CLOUDY    50  49  96 VRB3      29.99R FOG
LEONARDTOWN*   CLOUDY    48  46  93 NE3       30.01S

$$

MDZ003>005-291100-
NORTH CENTRAL MARYLAND

CITY           SKY/WX    TMP DP  RH WIND       PRES   REMARKS
FREDERICK*     CLOUDY    45  45 100 N3        30.06R FOG
HAGERSTOWN APT CLOUDY    46  43  89 E3        30.01R
WESTMINSTER*   CLOUDY    45  43  93 E6        30.01S FOG

$$

MDZ501>502-291100-
WESTERN MARYLAND

CITY           SKY/WX    TMP DP  RH WIND       PRES   REMARKS
OAKLAND*       FOG       45  45 100 CALM      29.95R VSB 1/4
CUMBERLAND*    CLOUDY    46  46 100 CALM      30.04R

$$

VAZ025>031-291100-
SHENANDOAH VALLEY

CITY           SKY/WX    TMP DP  RH WIND       PRES   REMARKS
WINCHESTER*    CLOUDY    45  45 100 E5        30.01R FOG
FRONT ROYAL*   CLOUDY    45  45 100 N5        30.00R
LURAY*         FOG       46  46 100 NE7       29.99R VSB 1
NEW MARKET*    CLOUDY    47  47 100 N5        29.99R
STAUNTON*      CLOUDY    52  52 100 CALM      30.00R FOG
WAYNESBORO*    CLOUDY    51  50  96 MISG      29.98R VSB 1

$$

WVZ021-048>050-054>055-291100-
EASTERN WEST VIRGINIA PANHANDLE

CITY           SKY/WX    TMP DP  RH WIND       PRES   REMARKS
MARTINSBURG    CLOUDY    45  44  97 CALM      30.02R FOG
PETERSBURG*    DRIZZLE   49  48  97 N5        30.00R

$$

VAZ036>039-050-291100-
CENTRAL FOOTHILLS

CITY           SKY/WX    TMP DP  RH WIND       PRES   REMARKS
CHARLOTTESVILL FOG       50  48  93 NE6       30.00R VSB 1
CULPEPER*      CLOUDY    48  47  99 N3        30.04R FOG
ORANGE*        CLOUDY    48  48 100 CALM      30.03R FOG
GORDONSVILLE*  CLOUDY    49  49 100 N3        30.01R FOG
WARRENTON*     LGT RAIN  48  44  85 NE3       30.02R

$$

VAZ055>057-291100-
NORTH AND CENTRAL PIEDMONT

CITY           SKY/WX    TMP DP  RH WIND       PRES   REMARKS
FREDERICKSBRG* CLOUDY    49  49 100 N3        30.01R
STAFFORD*      CLOUDY    47  46  94 N3        30.05S

$$

NCZ024-NYZ072-PAZ021-071-VAZ022-071-291100-
OTHER REGIONAL OBSERVATIONS

CITY           SKY/WX    TMP DP  RH WIND       PRES   REMARKS
NEW YORK CITY  CLOUDY    49  34  56 E7        30.09R
PHILADELPHIA   CLOUDY    47  41  80 NE9       30.06R
PITTSBURGH     DRZL/FOG  46  44  93 NW6       29.96R VSB 1/4
ROANOKE        CLOUDY    57  57 100 SE5       30.01R FOG
RICHMOND       CLOUDY    50  49  96 N10       29.99R
RALEIGH        FOG       61  60  97 N7        29.96R VSB 1/2

$$

ANZ530>537-291100-
MARINE OBSERVATIONS

STATION/POSITION TIME  TEMP    WIND        PRES
                       AIR SEA DIR/SP/G
                 (UTC) (F)     (DEG/KT/KT) (MB)
THOMAS PT LIGHT  1000   48 57   30/  8/ 10 1018.2R
BALT KEY BRIDGE  0900   46     360/  8/  9 1016.5R
COVE POINT       0900   49      60/  9/ 13 1016.2R
LEWISETTA        0900   51 60   50/  5/  9 1014.9R
SOLOMONS ISLAND  0900   50 60   20/  7/  9   N/A

$$





USA.gov is the U.S. government's official web portal to all federal, state and local government web resources and services.